Date String (YYYY-MM-DD hh:mm:ss) UTC,Instrument flags,absolute air pressure of the measurement (hPa),sample flow rate (lpm),inlet stack bypass flow (lpm),air temperature of the measurement (°C),ambient temperature measured by the external sensor (°C),aerosol sample conditioner tube jacket temperature (°C),OPC LED temperature (°C),internal box temperature (°C),relative humidity of the measurement (%),span deviation,mass concentration of particles derived from Lorenz-Mie calculation of OPC scattering (μg/m³),mass concentration of particles derived from Lorenz-Mie calculation of OPC scattering (μg/m³),mass concentration of particles derived from Lorenz-Mie calculation of OPC scattering (μg/m³)
DateTimeUTC,F1_M11,P_M11,Q1_M11,Q2_M11,T1_M11,T2_M11,T3_M11,T4_M11,T5_M11,U1_M11,ZSPAN_M11,X2_M11,X0_M11,X1_M11
2023-09-20 02:00:00,SystemResetWarning,0829.7,5.00,000.00,027.8,025.1,000.0,036.3,029.3,19.5,0000.0,0001.37,0004.50,0000.92
2023-09-20 02:01:00,SystemResetWarning,0829.7,5.00,000.00,027.8,025.4,000.0,036.3,029.3,19.5,0000.0,0001.32,0004.44,0000.89
2023-09-20 02:02:00,SystemResetWarning,0829.7,5.00,000.00,027.8,025.6,000.0,036.3,029.3,19.4,0000.0,0001.27,0004.40,0000.86
2023-09-20 02:03:00,SystemResetWarning,0829.7,5.01,000.00,027.8,025.8,000.0,036.3,029.3,19.4,0000.0,0001.26,0004.35,0000.83
2023-09-20 02:04:00,SystemResetWarning,0829.7,5.00,000.00,027.8,025.9,000.0,036.3,029.3,19.3,0000.0,0001.25,0004.45,0000.82
2023-09-20 02:05:00,SystemResetWarning,0829.7,5.00,000.00,027.8,026.0,000.0,036.2,029.4,19.3,0000.0,0001.21,0004.53,0000.80
2023-09-20 02:06:00,SystemResetWarning,0829.7,4.99,000.00,027.8,026.2,000.0,036.2,029.4,19.1,0000.0,0001.19,0004.31,0000.80
2023-09-20 02:07:00,SystemResetWarning,0829.7,4.99,000.00,027.8,026.3,000.0,036.2,029.4,19.0,0000.0,0001.13,0003.45,0000.80
2023-09-20 02:08:00,SystemResetWarning,0829.7,5.00,000.00,027.9,026.3,000.0,036.2,029.4,19.0,0000.0,0001.15,0003.24,0000.80
2023-09-20 02:09:00,SystemResetWarning,0829.7,5.01,000.00,027.9,026.4,000.0,036.2,029.5,18.9,0000.0,0001.12,0002.41,0000.79
2023-09-20 02:10:00,SystemResetWarning,0829.7,5.01,000.00,027.9,026.5,000.0,036.2,029.5,18.8,0000.0,0001.16,0002.51,0000.80
2023-09-20 02:11:00,SystemResetWarning,0829.7,5.01,000.00,027.9,026.5,000.0,036.2,029.5,18.8,0000.0,0001.19,0003.09,0000.81
2023-09-20 02:12:00,SystemResetWarning,0829.7,5.00,000.00,027.9,026.6,000.0,036.3,029.6,18.8,0000.0,0001.22,0003.16,0000.83
2023-09-20 02:13:00,SystemResetWarning,0829.7,5.00,000.00,028.0,026.6,000.0,036.3,029.6,18.8,0000.0,0001.22,0003.13,0000.84
2023-09-20 02:14:00,SystemResetWarning,0829.7,4.99,000.00,028.0,026.7,000.0,036.3,029.6,19.0,0000.0,0001.23,0003.10,0000.85
2023-09-20 02:15:00,SystemResetWarning,0829.7,5.00,000.00,028.0,026.7,000.0,036.3,029.7,19.0,0000.0,0001.21,0002.94,0000.86
2023-09-20 02:16:00,SystemResetWarning,0829.7,5.01,000.00,028.0,026.8,000.0,036.3,029.7,19.3,0000.0,0001.21,0002.79,0000.87
2023-09-20 02:17:00,SystemResetWarning,0829.7,5.01,000.00,028.1,026.8,000.0,036.3,029.7,19.3,0000.0,0001.23,0002.50,0000.88
2023-09-20 02:18:00,SystemResetWarning,0829.7,5.00,000.00,028.1,026.8,000.0,036.3,029.8,19.2,0000.0,0001.25,0002.51,0000.89
2023-09-20 02:19:00,SystemResetWarning,0829.7,4.99,000.00,028.1,026.9,000.0,036.3,029.8,19.2,0000.0,0001.23,0002.44,0000.90
2023-09-20 02:20:00,SystemResetWarning,0829.7,4.99,000.00,028.1,026.9,000.0,036.4,029.8,19.1,0000.0,0001.26,0002.69,0000.93
2023-09-20 02:21:00,SystemResetWarning,0829.7,4.99,000.00,028.2,026.9,000.0,036.4,029.9,19.3,0000.0,0001.24,0002.57,0000.94
2023-09-20 02:22:00,SystemResetWarning,0829.7,5.00,000.00,028.2,027.0,000.0,036.4,029.9,19.5,0000.0,0001.23,0002.00,0000.94
2023-09-20 02:23:00,SystemResetWarning,0829.7,5.01,000.00,028.2,027.0,000.0,036.4,029.9,19.5,0000.0,0001.23,0001.98,0000.94
2023-09-20 02:24:00,SystemResetWarning,0829.8,5.01,000.00,028.2,027.0,000.0,036.4,029.9,19.4,0000.0,0001.23,0001.96,0000.95
2023-09-20 02:25:00,SystemResetWarning,0829.7,5.01,000.00,028.2,027.0,000.0,036.5,029.9,19.3,0000.0,0001.23,0001.92,0000.95
2023-09-20 02:26:00,SystemResetWarning,0829.7,5.00,000.00,028.3,027.0,000.0,036.5,030.0,19.3,0000.0,0001.23,0001.91,0000.96
2023-09-20 02:27:00,SystemResetWarning,0829.8,5.00,000.00,028.3,027.0,000.0,036.5,030.0,19.3,0000.0,0001.21,0001.88,0000.96
2023-09-20 02:28:00,SystemResetWarning,0829.8,5.00,000.00,028.3,027.0,000.0,036.5,030.0,19.4,0000.0,0001.21,0001.89,0000.96
2023-09-20 02:29:00,SystemResetWarning,0829.8,5.00,000.00,028.3,027.1,000.0,036.6,030.0,19.2,0000.0,0001.20,0001.89,0000.95
2023-09-20 02:30:00,SystemResetWarning,0829.8,5.00,000.00,028.3,027.1,000.0,036.6,030.0,19.1,0000.0,0001.16,0001.83,0000.94
2023-09-20 02:31:00,SystemResetWarning,0829.8,5.00,000.00,028.3,027.0,000.0,036.6,030.0,19.3,0000.0,0001.12,0001.58,0000.93
2023-09-20 02:32:00,SystemResetWarning,0829.8,5.00,000.00,028.3,027.1,000.0,036.6,030.0,19.4,0000.0,0001.11,0001.61,0000.92
2023-09-20 02:33:00,SystemResetWarning,0829.8,5.01,000.00,028.3,027.1,000.0,036.7,030.0,19.4,0000.0,0001.10,0001.92,0000.92
2023-09-20 02:34:00,SystemResetWarning,0829.9,5.00,000.00,028.4,027.1,000.0,036.7,030.0,19.5,0000.0,0001.09,0001.88,0000.92
2023-09-20 02:35:00,SystemResetWarning,0829.9,4.99,000.00,028.3,027.1,000.0,036.7,030.0,19.7,0000.0,0001.10,0001.89,0000.92
2023-09-20 02:36:00,SystemResetWarning,0829.9,4.99,000.00,028.3,027.1,000.0,036.7,030.0,19.8,0000.0,0001.08,0001.91,0000.92
2023-09-20 02:37:00,SystemResetWarning,0829.9,5.01,000.00,028.3,027.1,000.0,036.7,030.0,19.9,0000.0,0001.08,0002.02,0000.91
2023-09-20 02:38:00,SystemResetWarning,0829.9,5.01,000.00,028.3,027.1,000.0,036.7,030.0,19.9,0000.0,0001.09,0002.03,0000.90
2023-09-20 02:39:00,SystemResetWarning,0829.9,5.00,000.00,028.3,027.0,000.0,036.7,030.0,19.9,0000.0,0001.06,0001.96,0000.90
2023-09-20 02:40:00,SystemResetWarning,0829.9,5.00,000.00,028.3,027.1,000.0,036.7,030.0,19.8,0000.0,0001.04,0001.90,0000.89
2023-09-20 02:41:00,SystemResetWarning,0830.0,4.99,000.00,028.3,027.1,000.0,036.7,030.0,19.8,0000.0,0001.07,0001.98,0000.90
2023-09-20 02:42:00,SystemResetWarning,0829.9,5.00,000.00,028.4,027.1,000.0,036.8,030.0,19.9,0000.0,0001.07,0001.98,0000.91
2023-09-20 02:43:00,SystemResetWarning,0829.9,4.99,000.00,028.4,027.1,000.0,036.8,030.0,19.9,0000.0,0001.08,0001.91,0000.91
2023-09-20 02:44:00,SystemResetWarning,0829.9,5.00,000.00,028.4,027.1,000.0,036.8,030.0,19.9,0000.0,0001.07,0001.57,0000.92
2023-09-20 02:45:00,SystemResetWarning,0829.9,5.01,000.00,028.3,027.1,000.0,036.8,030.0,19.9,0000.0,0001.07,0001.60,0000.93
2023-09-20 02:46:00,SystemResetWarning,0829.9,5.00,000.00,028.3,027.1,000.0,036.8,030.0,20.0,0000.0,0001.09,0001.68,0000.95
2023-09-20 02:47:00,SystemResetWarning,0829.9,4.98,000.00,028.4,027.1,000.0,036.8,030.0,19.6,0000.0,0001.13,0001.70,0000.96
2023-09-20 02:48:00,SystemResetWarning,0829.9,5.01,000.00,028.4,027.1,000.0,036.8,030.0,19.3,0000.0,0001.17,0001.65,0000.99
2023-09-20 02:49:00,SystemResetWarning,0829.9,5.01,000.00,028.4,027.1,000.0,036.8,030.0,19.6,0000.0,0001.19,0001.68,0001.01
2023-09-20 02:50:00,SystemResetWarning,0829.9,5.01,000.00,028.4,027.1,000.0,036.8,030.0,19.7,0000.0,0001.21,0001.74,0001.03
2023-09-20 02:51:00,SystemResetWarning,0829.9,4.99,000.00,028.4,027.1,000.0,036.8,030.0,19.2,0000.0,0001.23,0001.75,0001.04
2023-09-20 02:52:00,SystemResetWarning,0829.9,4.99,000.00,028.4,027.1,000.0,036.8,030.0,19.2,0000.0,0001.22,0001.70,0001.04
2023-09-20 02:53:00,SystemResetWarning,0829.9,5.00,000.00,028.4,027.1,000.0,036.8,030.0,19.5,0000.0,0001.24,0001.82,0001.05
2023-09-20 02:54:00,SystemResetWarning,0829.9,5.00,000.00,028.4,027.1,000.0,036.8,030.0,19.7,0000.0,0001.23,0001.77,0001.05
2023-09-20 02:55:00,SystemResetWarning,0829.9,5.00,000.00,028.4,027.1,000.0,036.8,030.1,19.7,0000.0,0001.22,0001.85,0001.05
2023-09-20 02:56:00,SystemResetWarning,0829.9,5.00,000.00,028.4,027.1,000.0,036.8,030.0,19.7,0000.0,0001.22,0001.83,0001.05
2023-09-20 02:57:00,SystemResetWarning,0829.9,5.00,000.00,028.4,027.1,000.0,036.8,030.0,19.3,0000.0,0001.23,0001.81,0001.04
2023-09-20 02:58:00,SystemResetWarning,0829.8,5.00,000.00,028.4,027.1,000.0,036.8,030.0,19.0,0000.0,0001.21,0001.80,0001.02
2023-09-20 02:59:00,SystemResetWarning,0829.8,5.00,000.00,028.4,027.2,000.0,036.8,030.1,19.2,0000.0,0001.18,0001.78,0001.01
